Regional Weather Roundup
Issued by NWS

Home | Current Version | Previous Version | Text Only | Print | Product List | Glossary Off
Versions: 1 2 3 4 5 6 7 8 9 10 11 12 13 14 15 16 17 18 19 20 21 22 23 24 25 26 27 28 29 30 31 32 33 34 35 36 37 38 39 40 41 42 43 44 45 46 47 48 49 50

781
ASUS44 KJAN 012103
RWRMS

MISSISSIPPI HOURLY WEATHER ROUNDUP
NATIONAL WEATHER SERVICE JACKSON MS
300 PM CST SUN MAR 01 2015

NOTE: "FAIR: INDICATES FEW OR NO CLOUDS BELOW 12,000 FEET WITH NO
SIGNIFICANT WEATHER AND/OR OBSTRUCTIONS TO VISIBILITY.

MSZ001>002-007>008-010>013-018>021-025>028-034>036-012200-
NORTHWEST MISSISSIPPI

CITY           SKY/WX    TMP DP  RH WIND       PRES   REMARKS
CLARKSDALE     CLOUDY    41  41 100 NW5       30.32R
CLEVELAND      FOG       42  42 100 N8        30.30R VSB 3/4
GREENWOOD        N/A    N/A N/A N/A MISG      30.27F
GREENVILLE     LGT RAIN  43  41  93 N12       30.28F VSB 3/4
OLIVE BRANCH   LGT RAIN  45  45 100 W3        30.31F FOG
OXFORD         CLOUDY    50  50 100 E6        30.30F FOG
TUNICA         HVY RAIN  43  41  93 N6        30.32F
$$

MSZ003>006-009-014>017-022>024-029>033-037>039-012200-
NORTHEAST MISSISSIPPI

CITY           SKY/WX    TMP DP  RH WIND       PRES   REMARKS
COLUMBUS AFB   LGT RAIN  54  54 100 SE6       30.31F
CORINTH        DRIZZLE   52  50  93 VRB3      30.31R
GOLDN TRIANGLE CLOUDY    54  48  82 SE9       30.32F
STARKVILLE     LGT RAIN  52  50  93 E7        30.31F
TUPELO         CLOUDY    53  50  89 S10       30.30F
$$

MSZ040-058-012200-
CENTRAL MISSISSIPPI

CITY           SKY/WX    TMP DP  RH WIND       PRES   REMARKS
JACKSON INTL   RAIN      58  56  93 CALM      30.29R FOG
JACKSON HAWKNS RAIN      58  57  97 S6        30.29R FOG
MERIDIAN KEY   CLOUDY    56  53  90 E7        30.31F
MERIDIAN NAS   CLOUDY    56  52  86 SE6       30.32F
VICKSBURG      CLOUDY    59  57  93 CALM      30.26R
$$

MSZ059>079-012200-
SOUTH MISSISSIPPI

CITY           SKY/WX    TMP DP  RH WIND       PRES   REMARKS
BROOKHAVEN     MOCLDY    59  59 100 SE6       30.28F
HATTIESBURG    RAIN      63  57  81 E5        30.28F
MCCOMB         CLOUDY    64  60  87 SE10      30.26F
NATCHEZ        CLOUDY    61  59  94 E3        30.26F
PINE BELT      CLOUDY    61  54  77 E3        30.30S
$$

MSZ080>082-012200-
COASTAL MISSISSIPPI

CITY           SKY/WX    TMP DP  RH WIND       PRES   REMARKS
BAY ST LOUIS   CLOUDY    61  55  82 E12       30.27F
BILOXI         NOT AVBL
PASCAGOULA     CLOUDY    59  57  93 E6        30.29F FOG
GULFPORT       CLOUDY    62  59  90 E9        30.27F FOG
$$



USA.gov is the U.S. government's official web portal to all federal, state and local government web resources and services.